This is the latest recevied weather packets stored in our database for station/object KD0SBN. If no packets are shown the sender has not sent any weather packets the latest 10 day(s).
| Time | Temp. | Humidity | Pressure | Rain* | Wind** | Luminosity | Snow |
|---|---|---|---|---|---|---|---|
| 1788579356 | 23.89° C | 47% | 1016.6 hPa | 0 mm | - | - | - |
| 1788579052 | 24.44° C | 46% | 1016.6 hPa | 0 mm | - | - | - |
| 1788578747 | 25° C | 45% | 1016.8 hPa | 0 mm | - | - | - |
| 1788578447 | 25.56° C | 44% | 1016.8 hPa | 0 mm | - | - | - |
| 1788578143 | 25° C | 45% | 1016.6 hPa | 0 mm | - | - | - |
| 1788577842 | 25° C | 45% | 1016.8 hPa | 0 mm | - | - | - |
| 1788577538 | 25.56° C | 44% | 1016.8 hPa | 0 mm | - | - | - |
| 1788577237 | 25.56° C | 44% | 1016.6 hPa | 0 mm | - | - | - |
| 1788576933 | 26.11° C | 43% | 1016.5 hPa | 0 mm | - | - | - |
| 1788576629 | 26.11° C | 43% | 1016.3 hPa | 0 mm | - | - | - |
| 1788576325 | 26.67° C | 42% | 1016.3 hPa | 0 mm | - | - | - |
| 1788576020 | 26.11° C | 42% | 1016.3 hPa | 0 mm | - | - | - |
| 1788575715 | 27.78° C | 40% | 1016.2 hPa | 0 mm | - | - | - |
| 1788575415 | 28.33° C | 39% | 1015.7 hPa | 0 mm | - | - | - |
| 1788575109 | 28.33° C | 39% | 1015.7 hPa | 0 mm | - | - | - |
| 1788574804 | 27.78° C | 40% | 1015.5 hPa | 0 mm | - | - | - |
| 1788574504 | 27.78° C | 40% | 1015.6 hPa | 0 mm | - | - | - |
| 1788574199 | 28.33° C | 40% | 1015.6 hPa | 0 mm | - | - | - |
| 1788573899 | 27.78° C | 40% | 1015.5 hPa | 0 mm | - | - | - |
| 1788573599 | 27.78° C | 39% | 1015.4 hPa | 0 mm | - | - | - |
| 1788573298 | 27.78° C | 38% | 1015.4 hPa | 0 mm | - | - | - |
| 1788572997 | 28.33° C | 37% | 1015.4 hPa | 0 mm | - | - | - |
| 1788572692 | 28.89° C | 36% | 1015.4 hPa | 0 mm | - | - | - |
| 1788572388 | 28.89° C | 35% | 1015.4 hPa | 0 mm | - | - | - |
| 1788572084 | 29.44° C | 35% | 1015.5 hPa | 0 mm | - | - | - |
* Rain latest hour (hover to see other rain measurements)
** Current wind speed in m/s (hover to see current wind gust speed)